Location: Mahannah Oil Field
(37.4664°N, 96.6003°W)
Time: 06:38:20
(UTC+00:00)

Tiros 1 despin weight - Pass Details

Date: 21 January 2021
Orbit: 593 x 642 km, 48.2° (Epoch: 06 March)

Event Time Altitude Azimuth Distance (km) Brightness Sun altitude
Rises 23:57:51 0° 281° (WNW) 2,862 ? -4.5°
Reaches altitude 10° 00:00:35 10° 297° (WNW) 1,950 ? -5.0°
Maximum altitude 00:04:07 23° 349° (N) 1,305 ? -5.6°
Drops below altitude 10° 00:07:39 10° 42° (NE) 1,934 ? -6.3°
Enters shadow 00:08:37 - 49° (NE) 2,238 ? -6.5°
